Terminal Aerodrome Forecast
Issued by NWS North Platte, NE

Home | Current Version | Previous Version | Text Only | Print | Product List | Glossary Off
Versions: 1 2 3 4 5 6 7 8 9 10 11 12 13 14

000
FTUS43 KLBF 131100
TAFVTN
TAF
KVTN 131120Z 1312/1412 19015KT P6SM SKC
     FM131400 20015G25KT P6SM SKC
     FM131900 25012G18KT P6SM FEW250
     FM132100 30010KT P6SM SKC
     FM140100 01005KT P6SM SKC=

USA.gov is the U.S. government's official web portal to all federal, state and local government web resources and services.